Location: *
(55.6049°S, 142.1985°W)
Time: 09:13:55
(UTC+00:00)

Meteor 2-10 Rocket - Pass Details

Date: 12 May 2021
Orbit: 734 x 885 km, 81.2° (Epoch: 13 June)

Event Time Altitude Azimuth Distance (km) Brightness Sun altitude
Exits shadow 14:13:19 16° 355° (N) 1,908 5.4 -25.1°
Maximum altitude 14:17:27 77° 78° (ENE) 779 3.5 -24.5°
Drops below altitude 10° 14:22:34 10° 163° (SSE) 2,282 6.2 -23.8°
Sets 14:24:54 0° 164° (SSE) 3,212 6.9 -23.5°
